"Period start","avg(HW err(1)/warn(2) (#))","avg(Visibility (m))","avg(Weather code (#))","avg(Precip intensity (mm/h))","min(HW err(1)/warn(2) (#))","max(HW err(1)/warn(2) (#))","std(HW err(1)/warn(2) (#))","med(HW err(1)/warn(2) (#))","min(Visibility (m))","max(Visibility (m))","std(Visibility (m))","med(Visibility (m))","min(Weather code (#))","max(Weather code (#))","std(Weather code (#))","med(Weather code (#))","min(Precip intensity (mm/h))","max(Precip intensity (mm/h))","std(Precip intensity (mm/h))","med(Precip intensity (mm/h))"
2014-05-10 00:00:00,2,29467,0,0.00,2,2,0,2,22099,42222,5466,27951,0,0,0,0,0.00,0.00,0.00,0.00
2014-05-10 00:10:00,2,28598,0,0.00,2,2,0,2,15054,46311,8494,28494,0,0,0,0,0.00,0.00,0.00,0.00
2014-05-10 00:20:00,2,24095,0,0.00,2,2,0,2,13728,34154,6192,22169,0,0,0,0,0.00,0.00,0.00,0.00
2014-05-10 00:30:00,2,22979,0,0.00,2,2,0,2,15149,33447,5631,21867,0,0,0,0,0.00,0.00,0.00,0.00
2014-05-10 00:40:00,2,24821,0,0.00,2,2,0,2,16447,33071,5348,24378,0,0,0,0,0.00,0.00,0.00,0.00
2014-05-10 00:50:00,2,16924,22,0.29,2,2,0,2,4910,48693,11923,15517,0,71,29,0,0.00,1.40,0.52,0.00
2014-05-10 01:00:00,2,5972,71,1.02,2,2,0,2,4235,11924,2268,4872,71,71,0,71,0.10,1.65,0.46,1.15
2014-05-10 01:10:00,2,3640,71,2.10,2,2,0,2,2273,5328,983,3436,71,71,0,71,0.90,3.00,0.58,2.20
2014-05-10 01:20:00,2,2069,71,3.52,2,2,0,2,987,3447,737,2198,71,71,0,71,1.60,7.00,1.84,3.05
2014-05-10 01:30:00,2,2594,71,2.98,2,2,0,2,1506,3658,649,2702,71,71,0,71,1.10,5.45,1.27,2.78
2014-05-10 01:40:00,2,12835,70,0.48,2,2,0,2,4664,19912,4332,13286,67,71,2,71,0.00,2.65,0.75,0.25
2014-05-10 01:50:00,2,12135,63,0.40,2,2,0,2,5883,25621,5400,11293,0,71,21,71,0.00,1.10,0.37,0.30
2014-05-10 02:00:00,2,7176,62,0.79,2,2,0,2,3320,10807,2669,6840,40,71,14,71,0.00,1.65,0.57,0.77
2014-05-10 02:10:00,2,8494,71,1.19,2,2,0,2,1925,20091,5864,6932,71,71,0,71,0.00,3.50,1.28,0.70
2014-05-10 02:20:00,2,20234,65,0.12,2,2,0,2,12479,24841,4361,22298,61,71,5,61,0.00,0.25,0.10,0.15
2014-05-10 02:30:00,2,23478,28,0.07,2,2,0,2,13474,35581,6991,22060,0,71,35,0,0.00,0.60,0.18,0.00
2014-05-10 02:40:00,2,27105,0,0.00,2,2,0,2,12066,41501,9772,27132,0,0,0,0,0.00,0.00,0.00,0.00
2014-05-10 02:50:00,2,28350,0,0.00,2,2,0,2,13618,39392,8470,29940,0,0,0,0,0.00,0.00,0.00,0.00
2014-05-10 03:00:00,2,15721,0,0.00,2,2,0,2,12310,22818,3320,14340,0,0,0,0,0.00,0.00,0.00,0.00
2014-05-10 03:10:00,2,15704,0,0.00,2,2,0,2,9852,23248,3962,16250,0,0,0,0,0.00,0.00,0.00,0.00
2014-05-10 03:20:00,2,22801,0,0.00,2,2,0,2,16414,34414,5223,22644,0,0,0,0,0.00,0.00,0.00,0.00
2014-05-10 03:30:00,2,28594,0,0.00,2,2,0,2,16601,50000,9720,25847,0,0,0,0,0.00,0.00,0.00,0.00
2014-05-10 03:40:00,2,23758,0,0.00,2,2,0,2,13675,34328,6150,24088,0,0,0,0,0.00,0.00,0.00,0.00
2014-05-10 03:50:00,2,31418,0,0.00,2,2,0,2,22521,44262,5517,30747,0,0,0,0,0.00,0.00,0.00,0.00
2014-05-10 04:00:00,2,26470,0,0.00,2,2,0,2,22429,36853,4234,26128,0,0,0,0,0.00,0.00,0.00,0.00
2014-05-10 04:10:00,2,22550,0,0.00,2,2,0,2,12679,29530,4519,22521,0,0,0,0,0.00,0.00,0.00,0.00
2014-05-10 04:20:00,2,31076,0,0.00,2,2,0,2,24743,37862,4607,30972,0,0,0,0,0.00,0.00,0.00,0.00
2014-05-10 04:30:00,2,21318,0,0.00,2,2,0,2,15367,24804,2713,21624,0,0,0,0,0.00,0.00,0.00,0.00
2014-05-10 04:40:00,2,29470,0,0.00,2,2,0,2,18343,39881,7530,28172,0,0,0,0,0.00,0.00,0.00,0.00
2014-05-10 04:50:00,2,37802,0,0.00,2,2,0,2,19850,50000,8852,40121,0,0,0,0,0.00,0.00,0.00,0.00
2014-05-10 05:00:00,2,28926,0,0.00,2,2,0,2,22659,39276,4735,28484,0,0,0,0,0.00,0.00,0.00,0.00
2014-05-10 05:10:00,2,33588,0,0.00,2,2,0,2,23225,46347,6765,34600,0,0,0,0,0.00,0.00,0.00,0.00
2014-05-10 05:20:00,2,30152,0,0.00,2,2,0,2,21699,38269,4437,30502,0,0,0,0,0.00,0.00,0.00,0.00
2014-05-10 05:30:00,2,30313,0,0.00,2,2,0,2,20374,47400,8190,30724,0,0,0,0,0.00,0.00,0.00,0.00
2014-05-10 05:40:00,2,29458,0,0.00,2,2,0,2,18385,50000,10252,25847,0,0,0,0,0.00,0.00,0.00,0.00
2014-05-10 05:50:00,2,29779,0,0.00,2,2,0,2,20295,41787,7575,28036,0,0,0,0,0.00,0.00,0.00,0.00
2014-05-10 06:00:00,2,31646,0,0.00,2,2,0,2,16527,47513,9227,27900,0,0,0,0,0.00,0.00,0.00,0.00
2014-05-10 06:10:00,2,36540,0,0.00,2,2,0,2,26260,43989,5081,36806,0,0,0,0,0.00,0.00,0.00,0.00
2014-05-10 06:20:00,2,36566,0,0.00,2,2,0,2,28362,49663,5731,36904,0,0,0,0,0.00,0.00,0.00,0.00
2014-05-10 06:30:00,2,27326,0,0.00,2,2,0,2,12430,50000,12998,23170,0,0,0,0,0.00,0.00,0.00,0.00
2014-05-10 06:40:00,2,32048,0,0.00,2,2,0,2,23631,41492,5478,32655,0,0,0,0,0.00,0.00,0.00,0.00
2014-05-10 06:50:00,2,29896,0,0.00,2,2,0,2,22701,35867,3856,29878,0,0,0,0,0.00,0.00,0.00,0.00
2014-05-10 07:00:00,2,34743,0,0.00,2,2,0,2,23219,49093,7977,32010,0,0,0,0,0.00,0.00,0.00,0.00
2014-05-10 07:10:00,2,31788,0,0.00,2,2,0,2,15257,39761,6949,33416,0,0,0,0,0.00,0.00,0.00,0.00
2014-05-10 07:20:00,2,36932,0,0.00,2,2,0,2,31064,44119,4154,36778,0,0,0,0,0.00,0.00,0.00,0.00
2014-05-10 07:30:00,2,37345,0,0.00,2,2,0,2,25086,50000,7467,36674,0,0,0,0,0.00,0.00,0.00,0.00
2014-05-10 07:40:00,2,36669,0,0.00,2,2,0,2,25730,41444,4453,37598,0,0,0,0,0.00,0.00,0.00,0.00
2014-05-10 07:50:00,2,35844,0,0.00,2,2,0,2,31092,42562,3417,35087,0,0,0,0,0.00,0.00,0.00,0.00
2014-05-10 08:00:00,2,40129,0,0.00,2,2,0,2,27719,47094,5403,41376,0,0,0,0,0.00,0.00,0.00,0.00
2014-05-10 08:10:00,2,31931,0,0.00,2,2,0,2,24683,40281,4333,31688,0,0,0,0,0.00,0.00,0.00,0.00
2014-05-10 08:20:00,2,37682,0,0.00,2,2,0,2,32244,43582,3634,37737,0,0,0,0,0.00,0.00,0.00,0.00
2014-05-10 08:30:00,2,36231,0,0.00,2,2,0,2,30488,40391,3207,36438,0,0,0,0,0.00,0.00,0.00,0.00
2014-05-10 08:40:00,2,39014,0,0.00,2,2,0,2,34633,44535,3311,39776,0,0,0,0,0.00,0.00,0.00,0.00
2014-05-10 08:50:00,2,35391,0,0.00,2,2,0,2,27053,42036,4679,36274,0,0,0,0,0.00,0.00,0.00,0.00
2014-05-10 09:00:00,2,37608,0,0.00,2,2,0,2,31207,43215,4066,37745,0,0,0,0,0.00,0.00,0.00,0.00
2014-05-10 09:10:00,2,42262,0,0.00,2,2,0,2,33128,50000,5594,41972,0,0,0,0,0.00,0.00,0.00,0.00
2014-05-10 09:20:00,2,35840,0,0.00,2,2,0,2,30786,40314,2840,36081,0,0,0,0,0.00,0.00,0.00,0.00
2014-05-10 09:30:00,2,31383,0,0.00,2,2,0,2,25917,39211,5161,29450,0,0,0,0,0.00,0.00,0.00,0.00
2014-05-10 09:40:00,2,33250,0,0.00,2,2,0,2,27379,39700,3815,32978,0,0,0,0,0.00,0.00,0.00,0.00
2014-05-10 09:50:00,2,34493,0,0.00,2,2,0,2,28216,40707,3863,34170,0,0,0,0,0.00,0.00,0.00,0.00
2014-05-10 10:00:00,2,38812,0,0.00,2,2,0,2,30241,44873,4956,40304,0,0,0,0,0.00,0.00,0.00,0.00
2014-05-10 10:10:00,2,34802,0,0.00,2,2,0,2,26853,41916,4289,34630,0,0,0,0,0.00,0.00,0.00,0.00
2014-05-10 10:20:00,2,23907,24,0.05,2,2,0,2,16857,30186,4600,23504,0,41,20,40,0.00,0.15,0.05,0.03
2014-05-10 10:30:00,2,17990,68,0.09,2,2,0,2,14315,22824,2501,17252,41,71,9,71,0.05,0.15,0.04,0.08
2014-05-10 10:40:00,2,18776,73,0.12,2,2,0,2,10318,25876,4718,18655,71,77,3,71,0.00,0.40,0.11,0.08
2014-05-10 10:50:00,2,10084,71,0.58,2,2,0,2,4199,23480,5322,8355,71,71,0,71,0.05,1.20,0.38,0.55
2014-05-10 11:00:00,2,3521,71,2.09,2,2,0,2,1490,9733,2214,2906,71,71,0,71,0.20,3.85,1.11,2.23
2014-05-10 11:10:00,2,1977,71,3.46,2,2,0,2,1127,2719,523,1901,71,71,0,71,2.75,4.45,0.48,3.33
2014-05-10 11:20:00,2,2617,71,1.93,2,2,0,2,1890,3505,475,2550,71,71,0,71,1.15,3.00,0.60,1.82
2014-05-10 11:30:00,2,5238,71,1.18,2,2,0,2,2808,7302,1518,4800,71,71,0,71,0.45,1.50,0.30,1.25
2014-05-10 11:40:00,2,7630,71,0.35,2,2,0,2,3829,11220,2056,6972,71,71,0,71,0.10,0.85,0.21,0.30
2014-05-10 11:50:00,2,5848,71,0.66,2,2,0,2,3864,7380,1079,5607,71,71,0,71,0.30,1.25,0.27,0.60
2014-05-10 12:00:00,2,8198,71,0.51,2,2,0,2,5318,16100,3618,6050,71,71,0,71,0.05,0.95,0.31,0.60
2014-05-10 12:10:00,2,17206,73,0.04,2,2,0,2,12093,19531,2124,17820,71,77,3,71,0.00,0.10,0.04,0.03
2014-05-10 12:20:00,2,10756,71,0.08,2,2,0,2,9225,13205,1565,10164,71,71,0,71,0.00,0.30,0.08,0.05
2014-05-10 12:30:00,2,13217,67,0.07,2,2,0,2,10973,15160,1450,12842,51,77,10,71,0.00,0.20,0.06,0.05
2014-05-10 12:40:00,2,17711,10,0.01,2,2,0,2,14932,19990,1342,17942,0,51,20,0,0.00,0.05,0.02,0.00
2014-05-10 12:50:00,2,14472,0,0.00,2,2,0,2,12892,17808,1646,14004,0,0,0,0,0.00,0.00,0.00,0.00
2014-05-10 13:00:00,2,13402,12,0.01,2,2,0,2,12104,14928,907,13482,0,41,18,0,0.00,0.15,0.05,0.00
2014-05-10 13:10:00,2,6881,41,0.25,2,2,0,2,2347,13734,4300,4962,41,41,0,41,0.05,0.55,0.17,0.17
2014-05-10 13:20:00,2,3391,50,0.20,2,2,0,2,2486,4663,639,3286,41,54,6,54,0.05,0.45,0.12,0.20
2014-05-10 13:30:00,2,3820,57,1.33,2,2,0,2,2665,5210,741,3662,41,71,10,54,0.15,3.50,1.05,1.27
2014-05-10 13:40:00,2,3583,72,2.11,2,2,0,2,1566,6257,1454,3256,71,74,1,71,0.40,3.45,1.06,2.40
2014-05-10 13:50:00,2,2835,71,1.92,2,2,0,2,1463,5221,1026,2770,71,71,0,71,0.35,5.15,1.35,1.55
2014-05-10 14:00:00,2,3400,71,0.67,2,2,0,2,2037,5102,1021,2955,71,71,0,71,0.15,1.70,0.43,0.70
2014-05-10 14:10:00,2,1744,75,1.18,2,2,0,2,1119,2511,432,1649,71,77,3,77,0.45,2.65,0.66,0.95
2014-05-10 14:20:00,2,1686,73,1.93,2,2,0,2,1149,2361,389,1636,71,74,1,74,1.00,3.15,0.74,1.70
2014-05-10 14:30:00,2,4177,66,0.98,2,2,0,2,2382,9108,1930,3709,41,74,13,71,0.10,2.25,0.71,1.15
2014-05-10 14:40:00,2,3536,76,0.37,2,2,0,2,1519,7929,1979,2793,71,77,2,77,0.10,1.50,0.40,0.25
2014-05-10 14:50:00,2,1715,67,1.59,2,2,0,2,1051,2236,334,1758,41,77,13,71,0.70,3.45,0.74,1.27
2014-05-10 15:00:00,2,1705,72,2.90,2,2,0,2,1190,2344,319,1670,71,77,2,71,2.10,3.75,0.62,2.70
2014-05-10 15:10:00,2,1993,73,1.39,2,2,0,2,1614,2746,368,1870,71,74,1,74,0.80,2.20,0.36,1.38
2014-05-10 15:20:00,2,2351,71,1.22,2,2,0,2,1363,4138,880,2150,71,71,0,71,0.75,1.65,0.25,1.20
2014-05-10 15:30:00,2,1410,71,1.81,2,2,0,2,699,2231,492,1512,71,71,0,71,1.25,2.85,0.47,1.70
2014-05-10 15:40:00,2,1025,71,2.17,2,2,0,2,644,1515,283,1048,71,71,0,71,1.00,3.10,0.81,2.33
2014-05-10 15:50:00,2,2442,76,0.42,2,2,0,2,1613,3590,648,2386,71,77,2,77,0.20,0.90,0.22,0.40
2014-05-10 16:00:00,2,4033,77,0.14,2,2,0,2,2111,6403,1378,3740,77,77,0,77,0.00,0.35,0.10,0.10
2014-05-10 16:10:00,2,17684,44,0.01,2,2,0,2,5105,41839,12148,13954,10,77,29,54,0.00,0.05,0.02,0.00
2014-05-10 16:20:00,2,4207,46,0.20,2,2,0,2,1758,8090,1877,4504,0,77,36,71,0.00,0.70,0.24,0.05
2014-05-10 16:30:00,2,14515,44,0.04,2,2,0,2,3139,28457,8225,14740,10,77,34,44,0.00,0.20,0.07,0.00
2014-05-10 16:40:00,2,46106,2,0.00,2,2,0,2,32243,50000,5840,49408,0,10,4,0,0.00,0.00,0.00,0.00
2014-05-10 16:50:00,2,30055,0,0.00,2,2,0,2,4323,48016,16146,34996,0,0,0,0,0.00,0.00,0.00,0.00
2014-05-10 17:00:00,2,4404,27,0.04,2,2,0,2,2494,6561,1276,4114,0,77,30,10,0.00,0.20,0.06,0.00
2014-05-10 17:10:00,2,31003,9,0.00,2,2,0,2,9221,50000,16504,35118,0,10,3,10,0.00,0.00,0.00,0.00
2014-05-10 17:20:00,2,14592,22,0.03,2,2,0,2,2113,34638,9841,14652,0,77,33,0,0.00,0.15,0.06,0.00
2014-05-10 17:30:00,2,11339,50,0.03,2,2,0,2,3456,23591,5731,10744,10,77,33,77,0.00,0.10,0.04,0.00
2014-05-10 17:40:00,2,40469,4,0.00,2,2,0,2,11436,50000,13190,48444,0,10,5,0,0.00,0.00,0.00,0.00
2014-05-10 17:50:00,2,47811,0,0.00,2,2,0,2,43830,50000,2399,48907,0,0,0,0,0.00,0.00,0.00,0.00
2014-05-10 18:00:00,2,49451,0,0.00,2,2,0,2,46491,50000,1091,50000,0,0,0,0,0.00,0.00,0.00,0.00
2014-05-10 18:10:00,2,48382,0,0.00,2,2,0,2,40311,50000,2828,49514,0,0,0,0,0.00,0.00,0.00,0.00
2014-05-10 18:20:00,2,49846,0,0.00,2,2,0,2,48464,50000,461,50000,0,0,0,0,0.00,0.00,0.00,0.00
2014-05-10 18:30:00,2,36823,0,0.00,2,2,0,2,29904,44678,4873,35513,0,0,0,0,0.00,0.00,0.00,0.00
2014-05-10 18:40:00,2,47518,0,0.00,2,2,0,2,40846,50000,3277,49030,0,0,0,0,0.00,0.00,0.00,0.00
2014-05-10 18:50:00,2,29473,30,0.00,2,2,0,2,18833,39612,5381,29910,0,77,36,0,0.00,0.00,0.00,0.00
2014-05-10 19:00:00,2,27420,77,0.01,2,2,0,2,19037,35769,5492,27928,77,77,0,77,0.00,0.05,0.02,0.00
2014-05-10 19:10:00,2,33072,8,0.00,2,2,0,2,26777,44042,5527,31289,0,77,23,0,0.00,0.00,0.00,0.00
2014-05-10 19:20:00,2,31273,0,0.00,2,2,0,2,27121,41829,4369,29956,0,0,0,0,0.00,0.00,0.00,0.00
2014-05-10 19:30:00,2,21830,76,0.03,2,2,0,2,15818,36269,5883,20075,71,77,2,77,0.00,0.05,0.03,0.03
2014-05-10 19:40:00,2,15970,77,0.02,2,2,0,2,13344,19336,2197,15393,77,77,0,77,0.00,0.05,0.02,0.00
2014-05-10 19:50:00,2,12255,77,0.02,2,2,0,2,10194,14670,1343,11718,77,77,0,77,0.00,0.05,0.02,0.00
2014-05-10 20:00:00,2,11344,77,0.05,2,2,0,2,9990,12971,966,11226,77,78,0,77,0.00,0.15,0.05,0.05
2014-05-10 20:10:00,2,12943,75,0.06,2,2,0,2,9159,17333,2859,12388,71,78,3,77,0.00,0.25,0.08,0.05
2014-05-10 20:20:00,2,15500,77,0.00,2,2,0,2,12509,19565,2258,15264,71,78,2,78,0.00,0.00,0.00,0.00
2014-05-10 20:30:00,2,11351,76,0.04,2,2,0,2,8779,13598,1563,11388,71,78,3,78,0.00,0.20,0.06,0.03
2014-05-10 20:40:00,2,8734,73,0.04,2,2,0,2,6541,9824,840,8724,71,77,3,71,0.00,0.05,0.02,0.05
2014-05-10 20:50:00,2,8486,72,0.10,2,2,0,2,7317,11064,1218,8005,71,77,2,71,0.00,0.40,0.11,0.05
2014-05-10 21:00:00,2,8247,71,0.12,2,2,0,2,7134,9681,807,8016,71,71,0,71,0.05,0.30,0.08,0.08
2014-05-10 21:10:00,2,10251,75,0.02,2,2,0,2,7757,12549,1322,10575,71,77,3,77,0.00,0.10,0.03,0.00
2014-05-10 21:20:00,2,9168,77,0.02,2,2,0,2,7691,10544,914,9317,77,77,0,77,0.00,0.05,0.02,0.00
2014-05-10 21:30:00,2,8263,77,0.01,2,2,0,2,7552,9448,637,8066,77,77,0,77,0.00,0.05,0.02,0.00
2014-05-10 21:40:00,2,8049,10,0.00,2,2,0,2,7028,9511,709,7911,10,10,0,10,0.00,0.00,0.00,0.00
2014-05-10 21:50:00,2,8664,10,0.00,2,2,0,2,7378,12664,1550,7913,10,10,0,10,0.00,0.00,0.00,0.00
2014-05-10 22:00:00,2,11278,10,0.00,2,2,0,2,9829,13023,1119,10843,10,10,0,10,0.00,0.00,0.00,0.00
2014-05-10 22:10:00,2,10719,0,0.00,2,2,0,2,7955,17455,3178,9862,0,0,0,0,0.00,0.00,0.00,0.00
2014-05-10 22:20:00,2,23664,0,0.00,2,2,0,2,18052,38324,5540,21744,0,0,0,0,0.00,0.00,0.00,0.00
2014-05-10 22:30:00,2,24751,0,0.00,2,2,0,2,14879,34741,6293,25519,0,0,0,0,0.00,0.00,0.00,0.00
2014-05-10 22:40:00,2,32305,0,0.00,2,2,0,2,13398,50000,11053,30777,0,0,0,0,0.00,0.00,0.00,0.00
2014-05-10 22:50:00,2,40206,0,0.00,2,2,0,2,26169,47053,6383,40884,0,0,0,0,0.00,0.00,0.00,0.00
2014-05-10 23:00:00,2,44986,0,0.00,2,2,0,2,35702,50000,5386,46282,0,0,0,0,0.00,0.00,0.00,0.00
2014-05-10 23:10:00,2,39564,0,0.00,2,2,0,2,26694,50000,6915,40982,0,0,0,0,0.00,0.00,0.00,0.00
2014-05-10 23:20:00,2,25481,0,0.00,2,2,0,2,18877,38834,6811,22436,0,0,0,0,0.00,0.00,0.00,0.00
2014-05-10 23:30:00,2,19126,0,0.00,2,2,0,2,10462,27103,5061,18216,0,0,0,0,0.00,0.00,0.00,0.00
2014-05-10 23:40:00,2,24164,0,0.00,2,2,0,2,14965,42311,7522,23485,0,0,0,0,0.00,0.00,0.00,0.00
2014-05-10 23:50:00,2,19154,0,0.00,2,2,0,2,11471,31481,5468,19896,0,0,0,0,0.00,0.00,0.00,0.00
